Powrót do katalogu

STARLINK-11249

AktywnyŁącznośćVLEO
NORAD 60728·PAYLOAD·🇺🇸 United States

Wystrzelony Aug 28, 2024 z Cape Canaveral Space Force Station

Loading…

Następne Przeloty (najbliższe 24 godziny)

TLE

ŚwieżeSource: CelesTrak SupGP

Epoka: Sep 14, 2026, 14:39 UTC

1 60728C 24152J   26257.61090278  .00011291  00000+0  93035-4 0  2576
2 60728  53.1573 264.8043 0001117  83.4164 115.6857 15.69695969    11

Śledź STARLINK-11249 w czasie rzeczywistym z AllMySat

Download on the App Store